Погода в Атаке

Йемен     14°31′53″N   46°50′20″E
темп.,
°C
ветер,
м/с
пор.,
м/с
влажн.,
%
обл.,
%
осадки,
мм/ч
давл.,
гПа
погр.,
м
18 мая, вт
вт1800:00+27ююв46335 0.0 1009124
03:00+26юв442397 0.0 100834
06:00+25юв33245 0.0 101028
09:00+32ююв56105 0.0 1010959
12:00+35ююв55915 0.0 10083220
15:00+35юв551073 0.0 10063968
18:00+32ю661880 0.0 1006314
21:00+29ююв452871 0.0 1009115
19 мая, ср
ср1900:00+27ююв333172 0.0 100932
03:00+25юв223198 0.0 100811
06:00+26ююв222528 0.0 100913
09:00+32вюв021468 0.0 1009922
12:00+35всв48975 0.0 10074002
15:00+37с78898 0.0 10044595
18:00+34ссв710819 0.0 1005388
21:00+29юв332730 0.0 100733
20 мая, чт
чт2000:00+27юв333425 0.0 100840
03:00+26юв22295 0.0 100712
06:00+27юв33235 0.0 100818
09:00+33всв589100 0.0 10092342
12:00+35св576100 0.0 10073412
15:00+36с78586 0.0 10044155
18:00+33ссв5815100 0.0 1006462
21:00+29ююв3442100 0.0 1008131
21 мая, пт
пт2100:00+27юв4552100 0.0 1009139
03:00+26юв335298 0.0 100833
06:00+25юв224839 0.0 101121
09:00+31вюв341880 0.0 10111346
12:00+35в681217 0.0 10083631
15:00+36св8810100 0.0 10063805
18:00+30юв7743100 0.0 1008576
21:00+28юв4753100 0.0 1010310
22 мая, сб
сб2200:00+26юв5952100 0.0 1010326
03:00+24ююв346587 0.0 101067
06:00+24ююв3347100 0.0 101138
09:00+31юв681178 0.0 10111120
12:00+34вюв771172 0.0 10093038
15:00+34юв57126 0.0 10073268
18:00+30ююв882824 0.0 1007518
21:00+27ююв484679 0.0 1010264